Regional Weather Roundup
Issued by NWS

Home | Current Version | Previous Version | Text Only | Print | Product List | Glossary Off
Versions: 1 2 3 4 5 6 7 8 9 10 11 12 13 14 15 16 17 18 19 20 21 22 23 24 25 26 27 28 29 30 31 32 33 34 35 36 37 38 39 40 41 42 43 44 45 46 47 48 49 50

800
ASUS43 KTOP 292108
RWRKS

WEATHER ROUNDUP FOR KANSAS
NATIONAL WEATHER SERVICE GOODLAND KS
400 PM CDT THU SEP 29 2016

NOTE:  "FAIR" INDICATES FEW OR NO CLOUDS BELOW 12,000 FEET WITH NO
SIGNIFICANT WEATHER AND/OR OBSTRUCTIONS TO VISIBILITY.

KSZ001>006-013>018-027>032-041>047-292200-
NORTHWEST KANSAS

CITY           SKY/WX    TMP DP  RH WIND       PRES   REMARKS
GOODLAND       SUNNY     74  42  31 SE16G24   30.32F
HAYS           SUNNY     70  41  35 E7        30.34F
HILL CITY      SUNNY     71  44  37 E7        30.35F
RUSSELL        SUNNY     68  47  46 E7        30.33F
$$

KSZ061>065-074>080-084>089-292200-
SOUTHWEST KANSAS

CITY           SKY/WX    TMP DP  RH WIND       PRES   REMARKS
DODGE CITY     SUNNY     72  36  26 VRB6      30.34F
ELKHART          N/A     76  45  33 MISG        N/A
GARDEN CITY    SUNNY     74  40  29 SE5       30.33F
GREAT BEND     SUNNY     70  45  40 NE6       30.34F
LIBERAL        SUNNY     73  41  31 S6        30.35F
PRATT          SUNNY     68  42  38 E7        30.34F
$$

KSZ066>073-081>083-090>101-292200-
SOUTHEAST KANSAS

CITY           SKY/WX    TMP DP  RH WIND       PRES   REMARKS
CHANUTE        SUNNY     73  48  41 N12       30.29F
COFFEYVILLE    SUNNY     73  49  42 NW9       30.28F
HUTCHINSON     SUNNY     70  48  45 E6        30.33F
MEDICINE LODGE   N/A     71  47  42 E7        30.33F
NEWTON         SUNNY     68  49  50 CALM      30.33F
PARSONS        SUNNY     73  48  41 N9        30.30F
WICHITA INTL   MOSUNNY   71  49  45 NE7G16    30.32F
WICHITA JABRA  SUNNY     70  50  49 NE7       30.32F
WICHITA MCCONL SUNNY     70  50  48 NE8       30.32F
WINFIELD       SUNNY     71  49  45 NE7       30.32F
$$

KSZ007>012-019>026-033>040-048>060-102>105-292200-
NORTHEAST KANSAS

CITY           SKY/WX    TMP DP  RH WIND       PRES   REMARKS
CONCORDIA      SUNNY     70  48  45 VRB7      30.34F
EMPORIA        SUNNY     70  49  47 N10       30.32F
LAWRENCE       SUNNY     72  48  42 NW9       30.31F
MANHATTAN      SUNNY     70  50  49 VRB7      30.33F
MARYSVILLE     SUNNY     70  48  46 N5        30.34F
OLATHE IND     SUNNY     70  48  45 N7        30.31F
OLATHE EXE     SUNNY     70  46  42 NW8       30.30F
SALINA         SUNNY     71  47  42 NE7       30.34F
TOPEKA BILLARD SUNNY     71  50  47 N9        30.32F
TOPEKA FORBES  SUNNY     71  50  47 N9G17     30.32F
$$




USA.gov is the U.S. government's official web portal to all federal, state and local government web resources and services.